Regional Weather Roundup
Issued by NWS Charleston, SC

Current Version | Previous Version | Text Only | Print | Product List | Glossary Off
Versions: 1 2 3 4 5 6 7 8 9 10 11 12 13 14 15 16 17 18 19 20 21 22 23 24 25 26 27 28 29 30 31 32 33 34 35 36 37 38 39 40 41 42 43 44 45 46 47 48 49 50

000
ASUS42 KCHS 230425
RWRCHS

REGIONAL WEATHER ROUNDUP
NATIONAL WEATHER SERVICE CHARLESTON SC
1200 AM EDT TUE SEP 23 2014

NOTE: "FAIR" INDICATES FEW OR NO CLOUDS BELOW 12,000 FEET WITH NO
SIGNIFICANT WEATHER AND/OR OBSTRUCTIONS TO VISIBILITY.

NOT ALL STATIONS ARE QUALITY CONTROLLED BY THE NATIONAL
WEATHER SERVICE. USE DATA WITH CAUTION...ESPECIALLY
DEWPOINT OBSERVATIONS.

SCZ027-030-031-034>040-042>050-230500-
...SOUTH CAROLINA...

CITY           SKY/WX    TMP DP  RH WIND       PRES   REMARKS
N CHARLESTON   CLOUDY    69  66  90 NW6       30.12R
WATERFRONT PRK NOT AVBL
FORT JOHNSON   NOT AVBL
MOUNT PLEASANT CLOUDY    68  66  94 N7        30.11S
JOHNS ISLAND   PTCLDY    68  68 100 NW5       30.11F
PINOPOLIS        N/A     72  64  78 N6        30.05R
MONCKS CORNER    N/A     70  68  94 CALM      30.12F
SUMMERVILLE    CLOUDY    68  68 100 CALM      30.13S
BEAUFORT MCAS  CLOUDY    68  61  78 MISG      30.09F
BEAUFORT ARPT  FAIR      68  63  83 N14G20    30.07F
HILTON HEAD IS MOCLDY    70  63  78 N17       30.09F
GEORGETOWN     NOT AVBL
WALTERBORO     RAIN      66 N/A N/A E8        30.11F
ORANGEBURG     LGT RAIN  65  61  87 NE8       30.11F
BARNWELL       DRIZZLE   64  64 100 SE3       30.11S
AIKEN          CLOUDY    64  64 100 NE6       30.14S
MANNING        CLOUDY    66 N/A N/A CALM      30.13S
KINGSTREE      NOT AVBL
COLUMBIA       LGT RAIN  67  61  81 NE7       30.11F
SUMTER         CLOUDY    64  63  94 N6        30.13R
FLORENCE       LGT RAIN  66  61  84 N3        30.14R
MYRTLE BEACH   CLOUDY    68  63  83 NW8       30.11R
N MYRTLE BEACH CLOUDY    68  65  90 E3        30.09S

$$

GAZ063-065-086>088-099>101-113>116-118-119-134-136>141-150-230500-
...GEORGIA...

CITY           SKY/WX    TMP DP  RH WIND       PRES   REMARKS
SAVANNAH ARPT  CLOUDY    69  64  84 NE10      30.07F
HUNTER AAF     MOCLDY    69  65  89 NE8       30.05F
FORT STEWART   CLOUDY    67  64  88 NE6       30.06F
STATESBORO     NOT AVBL
SYLVANIA       RAIN      70  69  97 SE5       30.10S
CLAXTON        FAIR      68  68 100 E6        30.06F
THOMSON        MOCLDY    64  64 100 CALM      30.16S
AUGUSTA-BUSH   CLOUDY    65  62  90 NE3       30.09F
AUGUSTA-DANIEL CLOUDY    68  61  78 E7        30.11S
SWAINSBORO     CLOUDY    68  68 100 CALM      30.08F
VIDALIA        LGT RAIN  66  64  94 N3        30.07S
ALMA           CLOUDY    70  64  81 NE6       30.05F
WAYCROSS       CLOUDY    73  67  83 E8        30.03F
JESUP          MOCLDY    72  68  88 E6        30.05F
BRUNSWICK      CLOUDY    72  64  78 NE7       30.07R
SAINT SIMONS   LGT RAIN  72  70  93 VRB3      30.06R

$$

SCZ027-028-034-036>038-045-046-048>050-GAZ119-141-230500-
...LAKE AND SUPPLEMENTAL COASTAL OBSERVATIONS...

STATION/POSITION TIME  TEMP    WIND        PRES    WAVE   SWELL
                       AIR SEA DIR/SP/G            HT/PER HT/PER/DIR
                 (UTC) (F)     (DEG/KT/KT) (MB)    (FT/S) (FT/S/D)
UPR LAKE MARION  NOT AVBL
WINYAH BAY       0400   68     320/  5     1019.0S
LAKE MURRAY      0400   68      60/  3/ 12 1019.6S
ACE BASIN NERRS  0400   67     330/  2     1020.0S
FORT PULASKI     0400   71      10/ 13/ 17 1018.3F
SAPELO ISLAND    0400   71      30/ 12     1018.0S

$$

ANZ835-935-AMZ111-154-330-350-352-354-374-450-454-472-230500-
...C-MAN AND BUOY OBSERVATIONS...

STATION/POSITION TIME  TEMP    WIND        PRES    WAVE   SWELL
                       AIR SEA DIR/SP/G            HT/PER HT/PER/DIR
                 (UTC) (F)     (DEG/KT/KT) (MB)    (FT/S) (FT/S/D)
FOLLY BEACH CMAN 0400   68     320/  8/ 12 1019.9R
BUOY 41004       0400   78 82   40/ 12/ 16 1018.0R   4/ 4   2/ 8
BUOY 41008       0400   78 82   30/ 25/ 29 1016.0F   4/ 5   2/100/ 8
5E ST. MARYS GA  0400      83                N/A     4/ 4
FRYING PAN BUOY  NOT AVBL
BUOY 41025       0400   73      10/ 16/ 19 1019.4R   4/ 7   2/110/ 8
CAPE LOOKOUT NC  0400   73      20/ 10/ 11 1019.2R
BUOY 41002       0350   80 81   CALM  /  2 1019.2F   3/ 7   3/120/ 7
BUOY 41010       0400   78 84  320/ 14/ 17 1017.2R   3/ 8   2/ 80/ 8
BUOY 41012       NOT AVBL
ST AUGUSTINE FL  0400   75     200/  5/  5 1017.0F
CAPERS NEARSHORE 0300   76      40/ 10/ 12   N/A
FRIPP NEARSHORE  NOT AVBL


$$



USA.gov is the U.S. government's official web portal to all federal, state and local government web resources and services.